Wind_Speed
13 11 11 12 13 12 12 12 11 11 11 11 10 10 11 10 10 10 11 12 12 13 15 17 17 18 20 21 20 20 20 21 20 20 21 22 22 23 23 23 23 23 24 24 25 25 26 26 25 25 24 24 24 24 24 24 25 25 26 26 26 25 24 23 22 21 21 20 20 19 19 19 20 20 20 21 21 21 21 21 21 21 21 21 21
13 12 12 12 12 12 13 12 12 12 11 11 10 10 11 11 10 11 11 11 12 13 15 17 18 18 19 20 20 20 21 21 21 20 20 21 21 22 23 23 23 24 24 24 24 25 25 25 24 24 24 23 23 23 24 24 25 25 25 25 24 23 22 22 21 20 20 19 19 19 19 19 19 20 20 20 20 20 20 20 21 20 20 20 20
13 12 12 12 12 13 13 12 12 13 12 12 12 12 12 12 11 11 11 12 13 14 15 16 18 18 18 19 19 20 21 21 21 20 20 20 20 20 21 22 23 23 23 23 23 24 24 24 23 23 23 23 23 23 24 24 24 24 24 23 23 22 21 21 20 19 19 19 19 19 19 19 19 20 20 20 20 20 20 20 20 19 19 18 18
13 12 12 12 14 14 13 13 14 14 14 14 14 13 12 12 12 12 12 13 13 15 15 16 18 18 18 19 19 19 19 20 20 20 20 20 20 19 20 21 21 22 22 22 22 23 23 23 23 23 23 22 22 23 23 23 23 23 23 22 22 21 20 20 19 19 18 18 19 19 19 20 20 20 20 20 20 20 19 19 19 18 18 18 18
13 12 12 13 14 14 13 14 15 15 15 15 15 14 13 13 14 14 14 14 14 16 17 17 17 18 18 18 18 18 18 18 19 19 19 20 20 19 20 20 20 21 21 21 21 22 22 22 22 22 22 22 22 22 23 23 23 22 22 21 20 19 19 19 18 18 19 19 20 20 20 21 21 21 20 20 20 19 19 19 19 19 19 19 19
14 12 12 13 14 15 14 15 15 15 15 15 15 15 15 16 16 16 15 15 16 17 18 18 18 18 18 18 18 18 18 18 19 19 19 20 20 20 20 20 20 20 20 20 20 20 21 21 21 21 22 22 22 22 22 22 22 21 20 19 18 18 18 18 18 19 20 20 21 21 21 21 21 21 20 20 20 20 20 20 20 19 19 20 20
14 13 12 13 15 16 16 15 15 16 16 15 16 17 17 18 18 17 17 16 17 19 19 19 19 19 18 19 19 18 18 18 19 19 19 20 20 20 21 20 20 20 20 20 19 18 19 20 20 20 20 21 21 21 22 21 20 19 18 18 18 18 18 19 19 20 21 21 21 21 21 21 21 21 21 21 21 21 21 20 20 20 20 21 21
15 15 13 13 15 16 16 16 16 16 15 15 17 18 19 19 20 19 18 17 18 19 20 20 20 20 19 19 19 18 19 19 19 19 19 20 20 20 20 20 20 20 20 19 18 17 18 18 18 19 19 20 21 21 20 19 18 18 17 17 18 18 19 19 20 21 21 21 21 21 22 22 22 22 21 21 21 21 21 21 21 21 21 21 21
17 17 16 14 14 14 14 15 16 16 16 16 18 19 19 20 20 19 18 18 18 18 19 20 20 20 20 20 19 19 19 19 19 20 19 19 20 20 20 20 19 19 19 19 18 17 17 17 18 19 19 20 19 19 18 17 17 17 17 18 18 19 19 20 20 21 21 21 22 22 22 22 22 21 21 21 21 21 21 21 21 21 21 21 21
17 17 18 17 16 14 13 14 15 16 17 18 19 19 19 19 19 19 19 18 17 18 19 19 19 20 20 21 20 20 19 19 19 19 20 19 20 20 20 20 19 19 19 18 18 18 18 18 18 18 18 18 18 17 17 17 17 17 18 18 18 19 19 20 21 21 21 21 21 22 22 22 21 21 21 21 21 22 22 22 22 22 22 23 23
14 15 16 18 17 16 15 15 15 17 17 17 17 17 18 18 18 18 18 18 17 17 17 17 18 18 19 19 20 20 19 19 19 19 19 19 19 19 19 19 19 19 18 17 17 17 16 17 17 17 17 17 17 17 17 17 18 18 18 18 18 19 19 20 20 20 20 20 20 21 21 21 21 21 22 22 22 23 23 23 23 24 24 24 24
13 13 14 15 15 16 16 15 15 16 17 17 17 18 18 17 18 17 17 17 16 15 16 16 17 17 17 18 18 19 19 19 19 18 19 19 17 17 18 17 17 17 16 16 16 15 15 16 16 17 17 17 17 17 18 18 18 18 18 18 18 19 19 19 19 19 19 20 20 20 21 21 22 22 23 23 23 24 24 24 24 25 25 25 26
12 12 12 13 13 14 15 15 15 15 16 17 17 18 18 17 17 17 16 16 15 15 15 16 17 17 17 18 17 17 18 18 18 18 18 18 16 16 16 16 16 16 16 16 15 15 15 16 16 17 17 18 18 18 18 18 18 18 17 17 18 18 18 18 18 19 19 20 21 21 21 22 22 22 23 23 23 24 24 24 24 25 25 25 25
12 11 11 11 12 13 14 14 14 15 15 16 17 17 17 17 17 17 16 15 15 15 15 16 16 17 17 18 18 18 17 17 18 18 18 17 18 17 17 17 17 17 17 17 17 17 17 17 17 18 19 19 18 19 18 18 18 18 17 17 17 17 17 18 19 19 20 20 21 21 21 22 22 22 22 22 23 23 23 23 24 24 24 24 24
11 11 11 11 11 12 12 13 13 13 13 14 15 16 16 16 16 16 15 15 15 14 15 16 16 16 17 18 18 18 18 18 19 19 18 19 20 19 18 18 18 18 18 19 18 18 19 18 18 19 19 18 18 18 18 18 18 17 17 17 17 17 17 18 19 19 20 20 20 20 21 21 21 21 21 22 22 22 22 22 23 23 23 23 24
10 10 10 10 10 10 11 11 11 11 12 13 13 14 15 14 14 14 14 13 14 14 14 15 16 16 16 17 18 19 18 19 19 19 19 20 20 20 19 19 19 18 19 19 18 18 18 18 18 19 18 17 17 18 17 17 17 16 16 16 17 17 17 18 18 19 19 19 19 19 20 20 20 20 21 21 21 21 21 22 22 23 23 24 24
9 9 9 9 8 8 10 10 10 10 10 10 11 12 12 12 12 12 12 12 13 13 13 14 15 16 16 16 18 18 18 18 19 19 19 19 19 19 18 18 18 17 18 17 17 17 17 17 17 17 16 16 17 17 16 16 16 16 16 16 16 17 17 17 17 17 17 18 18 19 19 20 20 20 20 20 20 20 20 21 22 23 23 23 24
8 8 8 8 7 7 8 8 8 8 8 8 9 9 10 10 10 10 10 10 11 11 12 13 14 15 15 16 17 17 17 17 17 17 17 16 17 16 16 16 16 16 16 15 15 15 15 16 15 15 16 16 16 16 16 16 16 16 16 15 16 16 16 16 16 16 17 18 18 19 19 19 20 20 19 19 19 19 20 21 21 22 22 23 23
7 8 7 6 6 6 6 7 7 6 6 6 7 7 7 7 8 8 8 8 9 10 10 12 13 13 14 15 15 15 16 16 16 16 15 14 14 14 14 15 14 14 14 13 14 14 14 15 14 14 16 16 16 16 16 16 16 15 15 15 15 15 15 15 16 17 17 18 18 19 19 19 19 19 19 19 19 19 20 21 21 22 23 23 24
6 6 6 5 5 5 5 5 5 6 6 5 5 5 5 5 5 6 6 6 7 8 8 9 10 11 12 13 13 14 14 14 14 14 13 13 13 13 13 14 14 13 13 14 14 13 14 14 14 15 16 16 15 16 15 15 15 15 14 14 14 14 14 15 16 17 17 18 18 19 19 19 19 19 19 19 19 20 20 21 22 23 24 24 25
5 4 4 4 3 3 3 3 3 5 5 4 3 3 2 2 3 3 4 4 5 6 6 7 8 8 9 10 11 11 12 12 12 12 12 12 11 12 12 12 13 12 12 13 13 13 14 14 14 15 16 15 15 15 15 14 14 14 13 13 13 14 15 16 16 16 17 17 18 18 19 19 19 19 19 19 20 20 21 22 23 24 24 25 26
6 4 3 3 2 2 2 1 1 2 3 2 2 1 1 2 2 2 2 3 3 4 5 5 5 6 6 7 8 8 9 9 9 9 10 10 10 11 11 11 12 12 12 13 13 13 14 14 14 15 14 14 14 14 14 13 13 13 13 13 14 15 15 15 15 16 16 17 17 18 18 18 18 19 19 20 21 21 22 23 23 24 25 25 26
6 5 4 3 2 2 2 2 1 1 2 2 2 1 1 1 1 1 1 2 2 3 4 4 4 4 4 5 6 6 7 7 8 8 8 9 9 10 10 10 11 11 13 15 14 14 15 14 14 14 13 13 13 13 12 12 13 13 13 13 14 14 14 13 14 14 15 16 16 16 16 17 17 19 19 20 21 22 22 23 24 24 25 26 27
6 5 5 4 3 3 3 2 2 1 1 2 2 2 2 1 1 1 1 1 2 2 3 4 4 4 4 4 5 5 5 6 7 7 7 7 8 8 9 9 10 12 13 15 15 15 15 14 13 13 12 12 12 12 12 13 13 13 13 13 13 12 12 12 13 14 15 15 16 15 15 16 17 18 19 20 21 22 23 24 24 25 26 27 28
5 5 5 4 4 4 3 3 2 1 0 1 2 2 2 2 1 1 1 2 2 3 3 3 3 3 4 4 4 4 5 5 6 6 6 7 6 7 8 8 10 13 14 14 16 16 15 14 13 12 11 11 12 12 13 13 13 13 12 12 11 11 12 13 14 14 15 16 15 15 15 16 17 18 19 20 21 22 23 24 25 25 26 27 29
4 4 4 4 4 4 4 3 3 2 1 1 2 2 2 2 2 2 2 3 3 3 4 3 3 3 3 3 3 4 5 5 5 6 6 6 6 6 8 8 10 14 14 14 16 15 14 13 11 10 10 11 12 12 12 12 12 11 10 10 10 11 13 14 15 15 16 16 15 15 15 16 17 18 19 20 21 22 23 24 24 26 27 29 30
4 4 4 4 4 4 4 4 3 2 1 1 2 2 3 3 3 3 3 3 4 4 4 4 4 4 4 4 4 5 5 6 6 6 5 5 5 6 8 8 10 13 14 14 15 14 14 12 10 9 10 11 11 11 11 11 11 9 9 9 10 12 14 15 16 16 15 14 14 14 15 16 17 18 19 20 21 22 23 24 25 27 29 30 32
6 5 5 4 4 4 4 4 4 3 2 1 2 3 4 4 4 4 4 4 5 5 5 5 5 5 4 5 5 5 5 6 6 5 5 5 5 6 7 8 10 12 13 13 13 12 12 11 9 9 10 10 10 10 10 10 8 7 7 8 10 12 14 16 16 15 13 12 13 13 14 15 16 17 18 19 20 22 23 25 26 28 30 32 33
7 6 6 5 4 4 4 4 4 3 3 3 5 6 7 7 7 7 7 7 7 7 6 6 5 5 4 4 4 4 4 5 5 5 5 5 5 6 6 8 10 11 12 12 12 11 10 9 9 9 9 9 9 9 8 8 7 6 6 7 9 12 13 14 14 14 13 12 12 13 14 15 15 16 17 19 20 22 24 26 28 30 32 33 34
8 8 7 5 4 4 4 5 5 4 5 6 8 9 9 9 9 9 9 9 9 9 8 7 7 6 5 5 5 5 5 5 5 6 6 6 6 6 6 8 10 11 11 11 10 9 8 8 8 8 8 8 7 7 7 6 6 5 6 7 9 10 10 10 10 11 12 12 12 14 14 15 15 16 18 20 22 24 26 28 30 31 32 34 35
9 9 8 5 4 4 5 6 6 7 8 10 11 10 10 10 9 9 9 9 9 10 9 9 9 8 7 7 6 6 6 6 6 7 7 7 7 7 7 8 10 10 10 9 9 8 7 7 7 7 6 6 6 6 5 5 4 4 5 6 7 8 8 8 9 10 10 11 12 14 15 16 17 18 21 23 26 27 28 30 31 32 34 35 37
10 9 8 6 4 4 6 7 8 10 11 12 11 11 10 9 9 9 9 9 8 9 9 9 9 9 8 8 7 7 7 7 7 7 8 8 8 8 8 8 9 9 9 9 8 7 6 6 6 5 5 5 5 5 4 4 3 3 4 5 6 7 8 8 9 10 11 12 14 15 16 17 19 22 24 26 27 28 29 31 32 34 35 37 38
11 10 9 7 5 5 7 9 10 12 13 13 11 10 9 9 8 8 8 8 8 8 8 8 8 8 8 8 8 8 7 7 7 7 7 7 7 7 7 7 8 9 8 8 7 6 6 6 5 4 4 3 3 3 3 2 2 3 3 5 6 8 8 8 9 11 13 14 15 15 16 18 21 24 26 27 27 29 30 32 34 35 37 38 39
12 12 10 9 7 6 8 10 12 13 13 13 11 10 9 8 7 7 7 7 7 7 7 7 7 7 7 7 7 7 7 7 6 6 7 7 7 7 7 7 7 7 7 7 7 6 6 5 4 4 3 3 2 2 2 1 1 2 4 5 6 7 7 7 9 11 13 13 13 15 17 20 23 24 25 26 28 30 32 33 34 35 37 38 40
13 13 11 10 9 8 8 10 12 13 14 13 11 9 8 7 6 6 6 6 6 6 6 5 6 6 6 5 5 5 5 6 6 6 6 7 6 6 6 6 6 6 6 6 6 6 5 5 4 4 3 3 2 2 2 1 1 2 4 5 6 7 7 7 8 10 11 11 12 15 18 20 21 23 25 26 28 29 31 32 34 35 37 38 40
14 14 13 11 10 9 9 10 12 13 13 12 10 9 7 6 5 5 5 5 5 5 4 4 4 4 4 4 4 4 3 3 4 6 6 6 6 6 6 6 6 6 5 5 5 5 5 5 4 4 4 4 4 3 3 2 1 2 4 5 6 7 7 8 8 9 10 11 13 15 17 18 19 22 24 26 27 29 30 32 33 35 36 37 39
15 15 14 12 11 10 10 11 12 12 12 11 10 9 7 5 4 3 3 4 4 3 3 3 3 3 3 2 2 2 2 2 2 4 6 7 7 7 6 6 6 6 5 5 5 5 6 5 5 5 5 5 4 4 4 4 3 2 3 5 6 6 7 8 8 9 10 11 12 14 16 17 19 22 24 25 27 28 30 31 32 33 35 36 38
15 16 15 14 12 12 12 12 12 12 12 11 10 8 7 5 3 2 1 1 2 2 2 1 1 1 1 1 0 0 1 1 2 3 4 6 7 8 7 7 6 6 6 6 6 6 6 6 6 6 6 6 5 5 5 5 4 4 4 5 6 5 6 7 8 9 9 10 12 14 16 18 20 21 23 24 26 28 29 30 32 33 35 37 39
15 16 17 16 14 13 13 13 12 12 12 12 11 9 7 6 4 2 2 1 1 1 2 2 2 2 2 1 1 2 3 3 3 4 4 6 7 8 9 8 8 8 8 7 7 8 8 8 8 8 8 7 6 6 6 5 5 6 6 6 7 7 8 8 8 9 9 10 13 16 17 19 20 22 23 24 25 27 29 31 32 34 35 36 36
15 16 17 17 17 15 14 14 14 13 12 13 12 11 9 8 6 4 2 2 2 2 3 3 3 4 4 3 3 3 4 5 6 6 6 6 7 9 10 10 10 10 9 9 9 8 8 8 9 9 10 9 8 7 7 7 7 7 7 7 7 9 10 10 10 10 9 9 12 16 18 19 20 22 22 23 25 27 29 31 32 33 33 33 34
17 17 18 19 19 17 16 15 15 15 14 14 15 14 12 11 9 6 4 3 4 4 4 4 5 5 6 6 5 5 6 7 7 8 8 8 9 9 10 11 12 12 11 11 10 10 9 9 10 10 11 11 10 9 9 9 9 9 9 8 8 9 10 12 13 13 11 10 12 15 18 19 20 21 22 23 25 27 28 30 31 31 32 32 32
19 19 19 20 20 19 19 17 17 16 16 16 17 17 16 14 12 9 6 5 5 6 6 5 6 7 7 7 7 7 7 8 9 9 9 9 10 10 10 11 12 13 13 13 13 12 11 11 11 11 12 13 12 11 11 11 11 10 10 10 9 10 11 12 14 16 14 13 12 14 17 18 19 20 21 23 24 26 27 28 29 30 30 31 32
20 20 20 21 21 21 21 20 18 17 18 19 19 19 19 17 15 12 10 8 7 7 8 7 7 7 8 9 9 9 9 9 10 10 10 10 11 12 12 11 11 12 14 15 15 15 14 14 13 13 13 14 13 12 12 12 12 12 11 11 11 12 13 13 15 17 17 15 14 15 17 18 19 19 21 22 24 25 26 27 28 29 30 31 32
21 21 21 21 22 22 22 22 20 18 19 20 21 21 21 20 18 16 14 11 10 9 10 10 9 9 9 10 10 10 10 11 11 11 10 10 11 13 14 13 12 12 13 14 15 16 17 16 16 16 16 15 15 15 14 13 14 14 13 12 13 13 14 15 17 19 18 16 15 16 17 18 19 19 20 22 25 26 27 28 29 30 31 32 33
23 22 22 22 22 23 23 23 22 21 20 21 21 21 22 22 21 19 17 14 13 12 12 12 12 11 11 11 11 11 12 12 12 12 11 11 11 12 14 15 14 14 14 14 15 17 17 17 18 19 19 17 17 18 17 15 15 16 15 14 15 15 16 17 19 21 20 19 17 17 18 19 19 20 21 24 26 28 29 31 31 32 32 33 34
24 23 23 23 22 23 23 23 24 23 22 21 22 22 23 23 23 22 20 17 15 14 14 14 14 14 13 12 12 13 13 13 13 13 13 12 11 12 13 15 16 16 15 15 15 15 16 17 18 20 21 20 19 20 20 19 18 18 17 17 17 17 17 18 21 23 23 22 20 18 19 20 20 20 22 25 27 29 31 32 33 33 33 34 35
24 24 25 24 23 23 24 24 25 24 24 23 23 23 23 23 24 23 22 20 18 17 17 16 16 16 16 14 13 13 13 13 14 14 14 13 12 12 13 14 15 17 17 16 15 15 15 16 17 19 21 22 22 23 23 23 22 21 20 19 19 18 18 19 22 25 26 25 23 21 20 20 20 21 22 25 27 29 31 33 33 33 33 33 35
23 24 25 25 24 24 24 24 25 25 25 25 25 24 24 24 24 24 23 22 20 19 19 19 18 18 18 17 15 14 14 14 13 14 14 14 14 14 14 14 14 16 17 18 17 17 17 17 17 18 19 21 22 23 25 25 25 25 23 22 22 20 19 20 23 26 27 26 25 24 22 22 22 22 23 24 27 30 31 33 33 33 33 34 35
21 23 24 25 25 25 25 24 24 25 26 26 26 26 26 26 25 24 23 23 21 21 21 21 20 19 19 19 18 16 16 15 13 13 13 14 14 15 14 14 14 15 16 18 19 19 19 18 18 18 19 20 21 22 25 27 28 27 26 26 25 23 20 20 23 26 28 27 26 25 23 22 23 23 23 25 28 30 32 33 33 33 33 34 35
19 21 23 24 25 25 25 24 24 25 26 27 27 28 28 27 26 25 24 23 22 22 22 23 22 21 21 21 20 19 18 17 15 14 14 14 15 15 15 15 15 15 17 18 19 21 21 20 20 19 19 20 20 21 23 26 28 29 28 28 27 24 22 22 24 26 27 27 27 26 24 23 23 23 23 25 28 30 32 33 33 33 33 34 34
18 19 21 22 23 23 24 24 24 25 25 26 27 28 29 28 27 26 25 24 23 23 24 25 24 23 22 22 21 21 20 20 18 17 16 15 15 16 16 15 16 16 17 18 20 22 23 23 22 22 21 21 22 22 23 25 27 28 29 29 28 25 22 23 25 26 26 27 27 26 24 23 23 24 24 24 26 29 31 32 32 32 33 33 34
Wind_Direction
90 87 80 77 78 77 74 71 72 74 70 67 73 81 84 84 78 75 79 82 86 91 96 100 99 95 93 91 92 94 95 94 93 92 92 92 92 92 93 94 95 96 96 96 96 96 95 94 93 92 92 91 90 88 87 87 87 87 86 85 84 82 80 78 76 74 71 68 65 62 59 57 56 55 55 55 55 54 51 49 46 44 42 40 37
87 81 77 77 75 75 76 71 69 75 74 68 71 77 81 84 82 79 82 85 89 93 96 99 99 95 93 91 92 93 93 93 93 92 92 93 94 94 95 96 96 97 97 97 97 96 95 94 91 90 88 88 87 88 88 88 88 87 86 84 82 80 77 74 71 68 64 61 59 56 54 53 53 53 53 53 53 51 49 46 44 43 41 38 36
89 82 78 78 75 75 77 71 69 76 74 69 70 72 75 80 82 84 88 92 95 95 94 95 98 97 96 95 94 93 92 91 91 92 93 95 96 96 97 97 97 97 97 97 96 96 94 92 88 86 85 85 87 88 89 89 88 87 84 81 78 74 71 67 64 61 58 55 53 52 51 51 51 52 52 52 51 49 47 45 44 43 42 40 38
90 85 81 80 78 78 78 74 73 77 76 73 75 76 77 81 83 85 87 91 95 96 95 95 97 98 97 95 94 93 91 90 91 91 93 95 97 98 99 99 98 97 97 97 96 95 93 90 87 85 85 87 88 89 89 88 86 83 80 76 72 68 65 61 58 55 53 52 51 51 51 52 52 51 51 50 50 48 47 46 46 46 45 44 43
89 84 79 76 77 79 79 74 72 75 76 76 78 80 82 82 81 83 87 93 98 99 98 96 95 95 95 94 93 92 90 90 92 93 93 94 96 97 99 98 98 97 97 96 96 94 92 90 88 89 90 91 91 91 89 87 83 79 76 72 68 65 61 57 54 53 52 53 53 53 54 54 54 53 52 51 50 49 48 48 49 48 47 46 45
93 88 84 82 80 79 78 73 70 72 71 73 75 77 80 80 79 82 88 95 99 99 98 97 95 94 93 94 93 92 90 89 92 94 94 94 94 96 96 96 97 97 96 95 94 94 92 92 92 93 94 94 93 91 88 84 81 77 74 69 65 61 57 55 55 55 56 57 56 56 56 56 56 55 54 53 52 51 50 50 49 48 47 46 45
97 95 91 85 83 82 80 74 72 72 70 72 74 74 75 77 79 82 88 94 95 96 96 97 95 93 93 94 94 93 91 90 91 94 94 93 93 94 94 95 95 95 94 93 92 92 92 93 94 94 93 92 89 86 83 81 78 75 70 66 61 58 57 58 59 60 60 60 59 58 59 59 59 58 56 55 54 52 51 49 48 46 45 44 42
102 97 87 78 76 79 78 76 75 76 76 76 75 74 72 73 76 79 85 90 92 93 94 95 95 94 95 95 95 94 92 92 92 92 92 92 92 92 92 93 93 93 91 89 89 90 91 91 90 89 86 84 82 81 79 78 75 71 68 64 62 61 61 61 62 62 62 62 62 62 61 61 60 58 57 55 53 51 49 47 45 43 41 40 38
106 103 97 91 88 83 79 77 77 78 79 79 77 75 73 73 75 78 81 85 88 90 91 93 95 96 97 98 97 95 93 92 92 92 91 91 91 91 90 91 91 90 89 88 88 88 87 86 84 83 83 82 82 81 79 76 73 70 68 66 65 65 65 65 65 65 65 65 65 64 62 60 58 56 54 51 49 47 45 44 42 40 39 38 36
103 106 108 108 107 103 95 90 88 83 79 77 77 76 76 76 77 78 79 81 83 85 87 91 93 95 97 99 99 96 93 92 92 92 91 90 89 90 90 89 89 88 88 88 89 88 86 85 85 85 85 85 83 81 78 75 72 70 69 69 68 67 67 67 68 68 67 66 65 62 59 56 53 51 49 48 46 44 43 42 41 40 39 38 36
93 97 101 105 108 110 106 98 93 89 86 86 86 84 82 81 81 80 80 81 80 82 86 90 91 93 94 96 98 97 96 95 92 90 90 89 88 89 89 89 89 89 89 89 88 88 88 88 88 88 87 85 83 80 78 75 73 72 71 70 69 69 69 69 69 68 67 64 61 58 55 53 51 49 47 46 44 43 42 41 40 39 37 35 33
90 90 90 92 96 99 98 93 91 91 93 95 93 91 89 86 84 83 82 82 82 84 88 90 91 93 94 94 95 96 96 95 94 93 91 90 90 91 91 90 89 88 87 87 86 87 89 88 86 86 86 84 82 80 78 76 75 73 71 70 70 70 70 70 69 66 63 60 58 55 53 51 48 46 44 43 42 41 40 38 37 35 34 32 30
94 91 88 87 87 88 88 90 91 89 89 90 91 91 91 90 88 86 84 85 86 88 88 89 90 91 91 90 89 90 92 93 95 95 94 94 93 91 89 89 88 87 87 86 86 86 86 85 84 85 84 82 81 80 79 78 76 73 71 71 71 71 70 68 65 63 60 58 56 54 51 48 45 43 42 41 40 39 38 36 35 33 31 29 28
103 99 94 91 88 87 87 87 87 84 83 86 88 89 90 90 90 88 87 87 89 88 87 87 88 88 88 89 88 88 90 92 93 93 94 96 94 91 89 88 87 88 88 87 86 86 86 84 85 86 83 82 83 82 79 77 76 74 74 73 72 70 68 66 63 60 58 56 53 51 48 46 44 42 41 40 40 38 36 35 33 31 30 28 26
106 103 98 92 89 88 88 86 85 84 83 84 85 87 88 88 87 88 88 89 89 89 89 89 88 87 88 89 89 89 90 90 89 89 90 92 92 92 92 90 88 86 85 83 83 83 83 84 85 85 84 84 84 82 80 79 78 78 77 75 72 69 67 64 62 59 56 54 51 49 47 45 43 42 40 39 38 36 34 32 30 28 26 24 21
109 104 99 94 92 93 92 89 87 86 84 83 84 85 86 86 86 88 88 89 89 89 89 90 90 88 88 89 89 89 89 88 88 89 89 90 91 91 91 89 87 85 83 81 79 80 82 84 85 85 86 85 83 83 83 82 81 80 78 74 71 69 67 64 61 58 55 52 50 49 47 46 44 41 39 37 35 33 31 28 25 22 20 17 15
115 111 107 105 103 101 96 93 89 86 84 82 82 84 86 87 89 90 89 90 91 91 90 91 91 91 90 90 90 89 88 87 88 90 91 91 90 90 89 87 86 83 82 80 80 80 81 82 85 87 88 86 85 86 85 83 81 79 76 74 71 69 66 62 59 56 54 52 50 49 47 45 42 39 36 34 32 30 26 22 19 16 14 11 8
121 117 114 112 110 106 101 100 94 86 85 84 84 87 88 90 93 92 92 92 93 94 93 92 93 94 94 93 93 93 92 91 92 91 91 91 90 89 87 84 84 82 81 82 83 82 81 81 84 86 88 87 87 87 85 84 82 80 77 74 71 67 64 60 57 55 53 51 50 47 45 41 38 35 33 31 28 24 20 16 13 10 7 5 2
130 126 123 120 117 113 108 107 103 92 88 87 83 84 88 90 94 95 95 94 95 96 94 93 94 95 96 96 96 98 98 97 97 95 94 92 89 88 84 81 81 82 83 84 82 82 84 86 87 89 90 90 90 89 88 87 85 81 78 73 69 65 61 58 55 54 51 49 47 44 41 37 34 31 28 24 21 17 14 11 8 6 3 0 359
134 130 129 132 132 126 118 114 113 107 98 86 75 74 83 89 91 97 101 98 97 96 91 89 90 91 94 96 97 99 99 100 100 98 96 93 89 85 83 82 81 82 84 83 82 85 89 91 94 93 93 93 93 93 91 88 84 80 74 69 65 62 58 56 54 52 49 46 43 40 37 33 29 25 21 17 14 11 9 7 4 2 0 360 360
139 132 125 127 129 128 124 116 116 113 105 94 80 72 78 91 96 102 106 99 93 90 85 83 84 87 89 93 95 97 98 99 98 97 95 93 89 84 80 78 77 80 85 86 87 92 94 95 97 96 97 98 96 93 89 83 79 75 71 68 66 63 60 57 53 50 46 42 39 36 32 28 23 19 15 12 10 8 6 4 2 1 1 1 0
147 146 140 136 138 138 134 121 109 103 102 104 104 90 106 128 134 126 111 98 88 80 76 75 75 77 78 83 88 91 94 96 94 93 91 91 91 88 83 76 75 83 93 96 96 99 100 101 101 100 101 101 96 91 86 81 79 77 76 73 69 64 60 55 51 46 42 38 35 31 27 23 19 16 14 11 10 8 7 5 3 2 1 0 359
158 162 172 184 186 186 185 181 179 150 133 138 142 127 114 124 116 115 114 105 96 81 73 68 63 63 63 67 73 77 84 87 88 88 86 87 88 89 87 79 77 87 99 104 106 106 106 105 105 106 106 100 94 90 87 85 86 84 80 74 68 63 58 53 48 42 37 34 30 27 23 21 19 17 16 14 13 11 9 7 4 2 0 359 358
169 174 184 200 214 224 223 218 216 195 152 126 111 94 76 65 58 90 131 120 109 98 84 73 64 59 56 59 61 66 75 79 85 88 88 89 87 86 85 80 83 94 102 107 111 110 109 110 110 110 106 97 91 90 91 91 88 84 79 73 67 61 54 46 41 36 33 29 26 24 23 23 22 20 18 16 15 12 9 6 3 0 358 357 357
184 187 191 198 213 230 238 245 258 270 328 58 72 77 74 74 87 113 127 120 108 103 97 86 75 64 54 57 57 65 77 79 85 92 94 94 89 85 85 83 91 102 107 110 111 111 113 116 114 109 102 95 94 95 94 92 89 86 80 73 64 53 45 41 37 33 30 27 26 27 28 25 21 19 17 15 13 10 8 5 2 359 358 358 358
207 205 205 205 217 234 239 241 246 259 275 68 76 81 80 75 80 90 97 107 106 103 102 97 91 81 71 69 68 77 87 88 90 95 95 95 90 86 88 87 96 107 113 115 114 115 119 118 113 107 101 100 101 100 98 95 92 87 80 69 57 48 45 42 37 34 33 32 33 33 29 23 19 17 15 12 10 8 5 2 0 359 360 1 1
224 220 219 216 222 237 243 240 235 232 226 147 99 90 89 79 74 82 93 101 103 104 101 98 96 93 88 85 82 85 94 96 94 94 93 92 90 89 90 92 103 113 118 117 117 120 122 119 114 108 105 105 104 100 97 94 89 83 72 60 53 52 51 46 39 38 40 40 37 32 25 20 17 15 11 8 7 5 2 1 0 1 2 2 1
229 227 226 220 220 231 237 238 233 218 201 143 111 104 101 95 87 86 93 101 105 106 102 97 94 92 90 88 88 92 97 98 97 95 93 91 91 95 96 102 114 120 121 119 120 122 120 118 113 108 107 106 101 96 94 92 88 78 64 53 50 53 52 45 39 38 37 35 30 24 21 17 14 10 7 4 3 2 1 360 0 2 2 2 1
231 233 234 228 219 220 223 226 219 203 181 142 125 118 111 105 98 93 92 97 105 109 108 104 100 95 93 91 92 95 97 100 102 100 99 98 101 102 106 116 123 124 124 123 122 121 118 114 111 110 111 108 101 98 97 94 85 70 57 48 44 44 42 37 31 24 19 19 20 18 15 13 10 6 3 1 1 1 360 360 1 1 1 0 360
234 237 239 234 221 212 210 209 200 187 164 142 132 126 118 112 106 100 95 95 99 104 107 107 104 101 101 99 97 95 96 102 109 112 113 114 115 115 118 126 130 130 127 126 125 123 118 113 113 116 115 111 106 102 95 87 75 61 50 40 36 34 32 29 21 11 7 10 13 14 12 10 6 3 1 1 1 360 359 359 360 0 359 359 359
239 244 246 241 226 208 201 196 186 174 158 145 138 133 126 119 112 106 102 99 98 100 101 102 100 99 98 100 101 100 99 103 107 112 118 122 123 123 126 130 134 134 131 129 128 126 123 119 120 121 118 114 112 105 94 84 72 59 45 35 30 31 30 24 12 5 7 12 14 12 11 7 3 1 2 2 359 358 358 357 358 358 358 358 358
248 253 255 249 232 206 195 191 180 169 158 150 144 138 131 124 116 109 104 100 98 99 100 99 98 96 95 97 101 101 100 101 105 108 113 120 124 125 129 135 138 138 137 136 133 131 129 127 128 128 122 117 114 109 97 79 63 50 37 27 26 28 23 13 6 6 11 15 14 11 8 4 1 1 2 359 356 355 355 356 356 356 357 357 357
253 257 260 255 239 211 196 189 179 170 163 156 151 145 136 127 118 110 103 98 94 92 92 94 94 94 94 96 99 102 102 102 104 109 112 118 125 129 133 141 145 146 145 143 141 139 138 137 138 138 133 125 116 115 110 82 52 32 19 14 20 23 15 5 3 6 11 13 10 6 4 4 3 2 360 356 353 352 353 355 355 355 355 355 354
249 255 259 257 244 220 203 191 181 174 168 163 159 152 142 131 120 110 102 97 93 87 85 86 87 87 89 91 95 101 108 112 114 117 120 123 130 136 141 148 153 154 155 155 153 150 151 152 153 153 154 154 144 140 136 106 32 14 8 4 9 11 5 358 358 4 8 9 4 2 4 5 2 358 356 354 352 351 352 353 353 354 354 353 353
247 253 257 257 249 231 213 199 188 182 177 173 168 159 147 136 123 113 105 99 94 89 83 81 82 84 85 87 89 94 105 120 127 132 136 137 142 148 152 156 162 166 169 170 168 166 166 170 176 183 188 194 201 194 177 183 317 351 354 353 357 357 351 348 351 357 1 2 360 1 4 3 357 353 352 353 351 350 350 350 351 352 352 352 353
246 251 255 256 252 240 225 211 200 193 188 184 177 166 155 142 126 116 110 106 101 94 87 82 79 80 80 83 88 91 99 120 138 149 153 156 159 164 168 171 175 180 186 190 190 188 188 190 196 206 216 221 220 216 222 240 270 321 335 341 345 343 339 340 344 348 353 357 358 360 1 357 351 351 352 351 349 348 347 348 350 351 351 351 353
244 251 255 256 253 247 236 225 215 208 201 195 188 177 166 153 135 119 114 113 110 106 97 86 79 76 79 79 80 90 109 131 157 171 174 176 179 181 184 188 191 195 200 207 211 212 210 212 218 225 232 235 231 224 231 249 273 305 315 322 330 334 330 331 339 345 349 355 355 353 353 352 350 350 350 348 346 345 346 347 348 349 350 351 352
241 248 253 256 254 251 246 238 231 224 213 205 200 194 182 169 158 150 148 132 122 123 126 115 95 69 78 94 90 261 224 210 209 209 200 195 196 198 200 203 206 209 212 217 224 230 230 230 232 237 240 242 239 234 239 257 278 289 296 303 312 323 324 326 337 343 347 351 348 343 346 350 349 347 346 345 344 343 343 345 347 349 350 350 350
237 244 250 253 254 253 251 247 242 236 225 214 209 208 206 198 188 185 200 222 212 178 177 195 223 251 261 245 243 258 258 251 242 240 234 222 213 211 214 216 218 220 221 223 227 233 238 242 243 246 249 247 244 243 248 258 268 271 277 291 305 317 324 329 335 336 341 347 341 338 343 348 346 343 342 341 340 341 343 345 347 348 347 347 346
235 238 243 248 251 252 253 251 248 244 235 224 218 217 220 223 218 211 216 234 241 229 211 213 225 241 253 260 263 266 267 265 260 252 248 246 238 228 224 224 228 231 232 233 235 238 242 246 249 251 254 256 255 255 258 260 263 267 272 286 302 314 320 324 325 327 335 341 336 334 339 344 342 339 337 337 338 341 343 345 345 344 342 342 341
236 235 239 243 247 249 250 250 249 247 241 231 226 224 227 231 231 228 232 246 251 244 231 222 224 233 244 255 263 269 273 273 270 262 253 252 253 248 239 233 233 236 240 241 243 245 247 250 252 253 255 259 260 260 262 266 268 274 281 291 302 310 316 319 319 321 327 333 332 331 332 337 338 334 332 334 337 340 341 341 341 339 338 338 338
238 236 238 241 243 245 246 246 245 245 243 237 231 229 229 232 236 238 240 249 257 256 247 235 228 229 238 248 257 263 267 270 271 269 263 255 254 256 254 247 241 240 243 246 248 249 249 250 253 253 255 260 263 261 263 268 272 277 284 292 300 304 311 315 313 313 319 325 326 324 324 329 333 330 329 333 334 335 336 336 336 335 335 336 337
238 237 237 240 242 243 244 245 243 240 240 239 235 233 231 232 235 240 244 249 255 259 256 247 239 235 237 243 251 257 262 266 268 271 271 264 257 255 256 257 253 249 247 248 250 252 252 252 254 254 255 260 265 265 265 269 272 275 280 287 294 298 303 307 305 305 309 315 317 317 319 323 327 326 327 328 327 328 330 331 332 333 335 336 338
237 236 235 237 241 243 244 245 244 240 237 238 237 234 233 232 233 237 243 249 253 258 259 255 249 244 242 243 246 252 258 265 270 272 273 269 261 257 256 256 257 257 254 254 253 254 253 253 255 257 258 261 265 267 268 270 273 275 277 281 285 290 295 299 299 299 302 306 310 313 314 317 321 323 322 321 321 323 326 327 329 333 335 336 339
234 233 233 234 238 242 244 244 244 242 238 237 237 235 233 233 232 234 239 246 253 257 259 258 253 250 249 249 250 252 254 259 268 273 273 271 268 264 260 256 256 256 258 259 259 259 258 257 258 260 261 262 264 268 271 272 274 277 279 281 283 286 291 296 297 297 298 301 305 308 311 313 317 319 317 316 317 320 323 325 327 331 334 336 339
232 232 231 231 233 237 241 243 243 242 240 238 238 236 235 234 233 233 236 242 250 256 258 258 255 253 254 255 256 258 257 257 262 268 272 274 275 272 267 261 257 255 256 259 262 266 268 266 264 264 265 265 263 266 271 274 276 278 280 282 284 286 290 294 295 295 297 299 301 304 307 310 315 318 317 317 317 319 322 323 326 329 332 334 337
230 232 231 230 230 231 236 240 242 242 241 239 238 238 237 235 234 233 234 237 244 254 259 258 255 254 256 258 258 260 262 261 261 264 269 273 277 277 274 268 262 257 255 256 260 269 274 275 274 271 270 269 265 264 268 272 275 277 279 282 284 286 289 291 293 294 295 298 300 302 305 310 314 318 320 319 318 320 323 325 326 328 330 332 335
229 233 233 231 230 229 231 236 240 241 241 239 238 238 238 237 235 233 234 236 241 250 257 259 258 256 256 257 258 261 263 263 264 265 268 272 275 276 277 276 272 265 258 256 259 266 272 277 280 279 276 274 270 266 266 268 271 274 277 280 282 285 287 288 289 290 292 295 298 301 306 311 314 316 319 320 320 321 324 326 327 328 329 331 333
228 233 235 232 230 229 229 231 235 239 240 239 237 237 238 238 236 235 234 235 239 247 255 259 260 258 256 256 257 260 262 263 264 264 267 272 274 275 275 277 277 272 265 260 259 263 268 274 280 283 283 281 276 270 267 266 266 269 272 275 278 282 286 286 286 287 289 292 295 298 304 310 312 313 316 319 320 322 323 324 325 327 328 329 332
228 230 234 233 231 231 230 230 232 235 238 239 238 238 238 239 238 237 236 235 239 247 254 258 259 259 258 257 257 259 261 263 264 263 263 268 273 276 276 276 276 273 269 264 261 260 263 268 274 281 285 285 281 274 269 266 265 266 267 269 273 279 283 283 282 283 287 289 291 294 301 306 308 309 312 315 318 320 320 321 322 324 325 328 330
231 230 233 235 234 232 232 232 232 233 236 239 240 240 241 241 240 239 238 237 240 246 252 255 257 259 258 257 256 257 259 263 265 264 263 265 269 274 276 277 275 273 271 268 264 262 264 267 272 278 282 285 284 279 273 268 265 265 265 266 270 275 279 278 279 280 283 286 288 292 298 302 303 305 308 310 314 317 317 318 320 321 323 326 329
Height
5943 5943 5943 5943 5943 5943 5943 5943 5942 5941 5941 5941 5941 5941 5940 5940 5940 5940 5941 5942 5943 5944 5944 5944 5944 5944 5943 5943 5943 5944 5944 5944 5943 5944 5944 5944 5944 5944 5944 5945 5945 5946 5946 5946 5947 5947 5947 5948 5948 5948 5948 5948 5948 5948 5948 5947 5947 5947 5947 5947 5947 5947 5947 5947 5947 5947 5947 5947 5947 5947 5947 5946 5946 5946 5945 5945 5944 5943 5943 5942 5942 5941 5940 5940 5939
5944 5945 5944 5944 5944 5944 5944 5944 5944 5943 5942 5942 5942 5941 5941 5941 5941 5941 5941 5942 5944 5944 5944 5944 5944 5945 5945 5945 5945 5945 5945 5945 5945 5945 5946 5946 5946 5946 5946 5947 5947 5948 5948 5948 5949 5949 5949 5949 5950 5950 5950 5949 5949 5949 5949 5948 5948 5948 5948 5948 5948 5948 5948 5949 5949 5949 5949 5949 5948 5948 5948 5947 5947 5947 5946 5946 5945 5945 5944 5944 5943 5943 5942 5941 5940
5946 5946 5945 5945 5944 5944 5945 5945 5945 5944 5943 5943 5943 5942 5942 5942 5942 5942 5941 5942 5944 5944 5944 5945 5945 5946 5946 5947 5947 5947 5947 5947 5947 5947 5947 5948 5948 5948 5948 5948 5949 5949 5950 5950 5950 5950 5951 5951 5951 5951 5951 5951 5950 5950 5950 5950 5950 5950 5950 5950 5950 5950 5950 5950 5950 5950 5950 5950 5950 5949 5949 5949 5948 5948 5947 5947 5947 5946 5946 5945 5944 5944 5943 5942 5941
5947 5947 5946 5946 5946 5946 5946 5946 5946 5945 5944 5944 5944 5944 5944 5943 5942 5942 5942 5942 5943 5944 5944 5945 5946 5947 5947 5948 5948 5948 5948 5948 5948 5949 5949 5949 5949 5950 5950 5950 5951 5951 5951 5952 5952 5952 5952 5952 5952 5952 5952 5952 5952 5952 5951 5951 5951 5951 5952 5952 5952 5952 5952 5952 5952 5952 5951 5951 5951 5950 5950 5950 5949 5949 5949 5948 5948 5947 5947 5946 5945 5945 5944 5943 5943
5948 5948 5947 5946 5947 5947 5947 5946 5946 5946 5946 5945 5945 5945 5945 5944 5944 5943 5943 5943 5944 5945 5945 5946 5947 5947 5948 5948 5949 5949 5950 5950 5950 5950 5951 5951 5951 5951 5951 5952 5952 5952 5953 5953 5953 5953 5953 5953 5953 5953 5953 5953 5953 5953 5953 5953 5953 5954 5954 5954 5954 5954 5954 5954 5953 5953 5953 5952 5952 5952 5951 5951 5951 5950 5950 5950 5949 5949 5948 5947 5947 5946 5945 5945 5944
5949 5948 5947 5948 5948 5948 5947 5947 5947 5947 5947 5946 5946 5946 5946 5945 5945 5945 5945 5945 5946 5946 5946 5947 5948 5948 5948 5949 5950 5951 5951 5951 5951 5952 5952 5952 5952 5953 5953 5953 5953 5954 5954 5954 5954 5954 5954 5954 5954 5954 5954 5954 5954 5955 5955 5955 5955 5956 5956 5956 5956 5955 5955 5955 5955 5954 5954 5954 5953 5953 5953 5952 5952 5952 5951 5951 5950 5950 5949 5948 5948 5947 5946 5946 5945
5950 5949 5949 5949 5949 5948 5948 5948 5948 5948 5947 5947 5947 5947 5946 5946 5946 5946 5946 5947 5947 5947 5948 5948 5948 5949 5950 5950 5951 5952 5953 5953 5953 5953 5954 5954 5954 5954 5954 5954 5955 5955 5955 5956 5956 5956 5956 5956 5956 5956 5956 5956 5956 5957 5957 5957 5957 5957 5957 5957 5957 5957 5957 5956 5956 5956 5956 5955 5955 5955 5954 5954 5954 5953 5953 5952 5952 5951 5950 5950 5949 5948 5947 5946 5946
5951 5950 5949 5948 5948 5948 5948 5949 5950 5949 5949 5949 5948 5947 5947 5947 5947 5947 5948 5948 5948 5948 5949 5949 5950 5950 5951 5952 5953 5954 5954 5954 5955 5955 5955 5955 5956 5956 5956 5956 5956 5957 5957 5957 5957 5957 5957 5957 5957 5957 5958 5958 5958 5959 5959 5959 5959 5959 5959 5959 5959 5958 5958 5958 5958 5957 5957 5957 5957 5956 5956 5956 5955 5955 5954 5953 5953 5952 5951 5951 5950 5949 5948 5947 5946
5952 5952 5951 5951 5950 5949 5949 5950 5951 5950 5950 5950 5949 5948 5948 5948 5948 5949 5949 5950 5950 5950 5950 5951 5952 5952 5953 5954 5954 5955 5956 5956 5957 5957 5957 5957 5957 5957 5957 5957 5958 5958 5958 5958 5959 5959 5959 5959 5959 5959 5960 5960 5960 5960 5960 5961 5961 5961 5960 5960 5960 5960 5960 5960 5959 5959 5959 5959 5958 5958 5958 5957 5957 5956 5955 5954 5954 5953 5952 5952 5951 5950 5949 5948 5947
5952 5953 5954 5955 5954 5953 5953 5953 5952 5952 5951 5950 5950 5950 5950 5950 5950 5950 5951 5951 5952 5952 5952 5953 5953 5954 5955 5956 5957 5957 5957 5957 5958 5958 5958 5959 5959 5958 5959 5959 5959 5959 5960 5960 5960 5960 5961 5961 5961 5961 5961 5962 5962 5962 5962 5962 5962 5962 5962 5962 5961 5961 5961 5961 5961 5961 5960 5960 5960 5959 5959 5958 5958 5957 5956 5956 5955 5954 5954 5953 5952 5951 5950 5949 5948
5950 5952 5954 5955 5956 5956 5956 5955 5954 5954 5953 5953 5953 5952 5952 5952 5952 5952 5952 5953 5953 5954 5954 5955 5955 5956 5957 5958 5958 5959 5959 5959 5959 5959 5960 5960 5960 5960 5960 5960 5960 5961 5961 5962 5962 5962 5962 5962 5962 5963 5963 5963 5963 5963 5964 5964 5964 5964 5963 5963 5963 5963 5963 5962 5962 5962 5962 5961 5961 5961 5960 5960 5959 5958 5958 5957 5956 5956 5955 5954 5953 5952 5951 5950 5948
5950 5951 5952 5953 5955 5956 5956 5956 5956 5956 5956 5956 5956 5955 5954 5954 5954 5954 5955 5954 5955 5956 5957 5957 5958 5958 5959 5959 5960 5960 5960 5961 5961 5961 5961 5961 5961 5961 5961 5962 5962 5962 5962 5963 5963 5963 5964 5964 5964 5964 5964 5965 5965 5965 5965 5965 5965 5965 5965 5965 5965 5964 5964 5964 5964 5963 5963 5963 5963 5962 5962 5961 5961 5960 5959 5958 5958 5957 5956 5955 5954 5952 5951 5950 5949
5951 5952 5952 5953 5954 5955 5956 5956 5957 5957 5957 5957 5957 5957 5956 5956 5956 5957 5957 5957 5958 5959 5959 5959 5960 5960 5960 5960 5961 5961 5961 5962 5962 5962 5962 5962 5963 5962 5962 5963 5963 5963 5964 5964 5964 5965 5965 5965 5965 5966 5966 5966 5966 5966 5966 5966 5966 5967 5967 5966 5966 5966 5965 5965 5965 5965 5965 5964 5964 5964 5963 5963 5962 5961 5960 5959 5958 5957 5956 5955 5954 5953 5952 5951 5949
5953 5953 5954 5954 5954 5955 5956 5957 5957 5958 5958 5958 5958 5958 5958 5958 5958 5959 5959 5959 5960 5961 5961 5961 5961 5962 5962 5962 5962 5962 5963 5963 5963 5963 5963 5964 5964 5964 5964 5964 5965 5965 5965 5965 5966 5966 5966 5966 5967 5967 5967 5967 5968 5968 5968 5968 5968 5968 5968 5968 5967 5967 5967 5967 5966 5966 5966 5966 5965 5965 5964 5963 5963 5962 5961 5960 5959 5958 5957 5956 5955 5954 5952 5951 5950
5955 5955 5955 5955 5956 5956 5957 5958 5958 5959 5959 5959 5959 5960 5960 5960 5960 5960 5961 5961 5962 5962 5962 5963 5963 5963 5963 5963 5963 5964 5964 5965 5965 5965 5965 5966 5965 5966 5966 5966 5966 5966 5966 5966 5967 5967 5967 5968 5968 5968 5968 5969 5969 5969 5969 5969 5969 5969 5969 5969 5968 5968 5968 5968 5968 5968 5967 5967 5966 5966 5965 5964 5963 5963 5962 5961 5960 5959 5958 5957 5956 5954 5953 5952 5950
5956 5956 5957 5957 5957 5958 5959 5959 5960 5961 5961 5961 5961 5961 5961 5961 5962 5962 5962 5963 5963 5964 5964 5964 5964 5965 5965 5965 5965 5965 5966 5966 5966 5966 5967 5967 5967 5967 5968 5968 5968 5968 5968 5968 5968 5968 5969 5969 5969 5969 5970 5971 5970 5970 5970 5970 5970 5970 5970 5970 5970 5970 5970 5969 5969 5969 5968 5968 5967 5967 5966 5965 5964 5963 5962 5962 5961 5960 5959 5957 5956 5955 5953 5952 5950
5958 5958 5959 5959 5959 5960 5960 5961 5961 5962 5962 5962 5963 5963 5963 5963 5963 5964 5964 5965 5965 5966 5966 5966 5966 5966 5967 5967 5966 5967 5967 5967 5968 5968 5969 5969 5969 5969 5969 5969 5970 5970 5969 5970 5970 5970 5971 5971 5971 5971 5971 5971 5971 5971 5972 5971 5972 5972 5972 5972 5971 5971 5971 5971 5970 5970 5969 5969 5968 5968 5967 5966 5965 5964 5963 5962 5961 5960 5959 5958 5957 5955 5954 5952 5950
5960 5960 5960 5961 5961 5961 5962 5962 5963 5963 5963 5964 5964 5964 5965 5965 5965 5965 5966 5966 5967 5967 5968 5968 5968 5968 5968 5968 5968 5968 5969 5969 5970 5970 5970 5970 5970 5971 5971 5971 5971 5971 5971 5971 5972 5972 5972 5972 5972 5973 5972 5972 5972 5973 5973 5973 5973 5974 5973 5973 5973 5972 5972 5972 5972 5971 5971 5970 5970 5969 5968 5967 5966 5965 5964 5963 5962 5961 5960 5959 5957 5955 5954 5952 5950
5961 5961 5962 5962 5962 5963 5963 5964 5964 5964 5964 5965 5965 5965 5966 5967 5967 5967 5968 5968 5968 5969 5969 5969 5969 5969 5970 5970 5970 5970 5971 5971 5971 5971 5971 5972 5972 5972 5972 5972 5972 5972 5973 5972 5972 5972 5973 5973 5974 5974 5973 5974 5974 5974 5974 5975 5975 5975 5975 5975 5974 5974 5974 5973 5973 5973 5972 5971 5971 5970 5969 5968 5967 5966 5965 5964 5963 5961 5960 5959 5957 5955 5954 5952 5950
5961 5962 5963 5963 5964 5964 5964 5965 5965 5965 5965 5966 5966 5966 5967 5968 5968 5968 5969 5969 5970 5970 5970 5970 5970 5971 5971 5971 5972 5972 5972 5972 5972 5973 5973 5973 5973 5973 5973 5974 5974 5974 5973 5973 5973 5974 5974 5974 5975 5975 5975 5975 5975 5976 5976 5976 5976 5976 5976 5976 5976 5976 5975 5975 5974 5974 5973 5972 5972 5971 5970 5969 5968 5967 5965 5964 5963 5962 5960 5959 5957 5955 5954 5952 5950
5962 5962 5963 5964 5964 5965 5965 5966 5966 5967 5967 5967 5967 5967 5968 5968 5969 5969 5970 5970 5970 5971 5971 5971 5971 5972 5972 5972 5973 5973 5973 5973 5973 5973 5974 5974 5974 5974 5974 5975 5974 5974 5974 5973 5974 5975 5975 5976 5976 5976 5976 5977 5977 5977 5977 5977 5977 5978 5978 5977 5977 5977 5976 5976 5975 5975 5974 5973 5973 5972 5971 5970 5968 5967 5966 5964 5963 5962 5960 5959 5957 5955 5953 5952 5950
5963 5963 5964 5964 5965 5966 5966 5966 5967 5967 5968 5968 5968 5968 5969 5969 5970 5970 5970 5971 5971 5971 5972 5972 5972 5973 5973 5973 5974 5974 5974 5974 5974 5974 5974 5974 5975 5975 5975 5975 5975 5975 5975 5975 5976 5976 5976 5977 5977 5977 5978 5978 5978 5978 5978 5978 5979 5979 5979 5978 5978 5977 5977 5977 5976 5976 5975 5974 5973 5972 5971 5970 5969 5967 5966 5964 5963 5962 5960 5958 5957 5955 5953 5951 5949
5964 5965 5965 5965 5966 5966 5967 5967 5968 5968 5969 5969 5969 5969 5969 5970 5970 5970 5971 5971 5972 5972 5972 5972 5973 5973 5974 5974 5974 5975 5975 5975 5975 5975 5975 5975 5975 5975 5976 5976 5976 5976 5976 5976 5977 5977 5977 5978 5978 5978 5979 5979 5979 5979 5979 5980 5980 5980 5979 5979 5978 5978 5978 5978 5977 5976 5976 5975 5974 5973 5972 5970 5969 5967 5966 5964 5963 5962 5960 5958 5956 5954 5952 5950 5949
5965 5966 5966 5966 5966 5966 5967 5967 5968 5968 5969 5969 5969 5970 5970 5970 5970 5971 5971 5972 5972 5972 5972 5973 5973 5974 5974 5975 5975 5975 5975 5975 5975 5975 5976 5976 5976 5976 5976 5977 5976 5977 5977 5977 5978 5978 5978 5979 5979 5980 5980 5980 5980 5980 5980 5980 5980 5980 5980 5979 5979 5979 5979 5978 5978 5977 5976 5975 5974 5973 5972 5970 5969 5967 5966 5964 5963 5961 5960 5958 5956 5954 5952 5950 5948
5965 5966 5966 5966 5966 5966 5967 5967 5968 5968 5969 5969 5969 5970 5970 5970 5971 5971 5971 5972 5972 5972 5973 5973 5973 5974 5975 5975 5975 5975 5975 5976 5976 5976 5976 5976 5976 5976 5976 5977 5977 5977 5978 5978 5978 5979 5979 5980 5980 5980 5980 5980 5980 5981 5981 5981 5981 5981 5980 5980 5980 5980 5979 5979 5978 5977 5976 5975 5974 5973 5972 5970 5969 5967 5966 5964 5963 5961 5959 5957 5955 5953 5951 5949 5947
5965 5965 5966 5966 5966 5967 5967 5967 5968 5968 5969 5969 5970 5970 5970 5971 5971 5971 5971 5972 5972 5972 5973 5973 5974 5974 5975 5975 5975 5976 5976 5976 5976 5976 5977 5977 5977 5977 5977 5977 5977 5977 5978 5979 5979 5980 5980 5981 5981 5981 5981 5981 5981 5981 5981 5981 5981 5981 5981 5981 5980 5980 5980 5979 5978 5977 5976 5976 5975 5973 5972 5971 5969 5967 5966 5964 5963 5961 5959 5957 5955 5953 5951 5949 5946
5964 5965 5965 5966 5966 5967 5967 5967 5968 5968 5969 5970 5970 5970 5970 5971 5971 5971 5971 5972 5972 5972 5973 5973 5974 5974 5975 5975 5975 5976 5976 5976 5977 5977 5977 5977 5977 5977 5977 5978 5978 5978 5979 5979 5980 5980 5981 5981 5981 5981 5981 5981 5982 5982 5982 5982 5982 5981 5981 5981 5981 5981 5980 5980 5979 5978 5977 5976 5975 5974 5972 5971 5969 5967 5966 5964 5962 5961 5959 5957 5955 5952 5950 5948 5945
5964 5965 5965 5966 5966 5967 5967 5967 5968 5968 5969 5970 5970 5970 5971 5971 5971 5971 5972 5972 5972 5972 5973 5973 5974 5974 5975 5975 5975 5976 5976 5976 5977 5977 5977 5977 5978 5978 5978 5978 5978 5979 5979 5980 5980 5981 5981 5981 5982 5982 5982 5982 5982 5982 5982 5982 5982 5982 5981 5981 5981 5981 5980 5980 5979 5978 5977 5976 5975 5974 5973 5971 5969 5968 5966 5964 5962 5960 5958 5956 5954 5951 5949 5947 5944
5964 5964 5965 5966 5966 5967 5967 5967 5968 5968 5969 5970 5970 5971 5971 5972 5972 5972 5972 5972 5972 5973 5973 5973 5974 5974 5975 5975 5976 5976 5976 5976 5976 5977 5977 5978 5978 5978 5978 5979 5979 5979 5980 5980 5981 5981 5981 5981 5982 5982 5982 5982 5982 5983 5983 5982 5982 5982 5982 5981 5981 5981 5980 5980 5979 5978 5977 5977 5975 5974 5973 5971 5969 5968 5966 5964 5962 5959 5957 5955 5953 5950 5948 5946 5943
5964 5964 5965 5965 5966 5967 5967 5967 5968 5969 5969 5970 5971 5971 5972 5972 5973 5973 5973 5973 5973 5973 5974 5974 5974 5975 5975 5976 5976 5976 5976 5976 5976 5977 5977 5978 5978 5978 5979 5979 5979 5980 5980 5981 5981 5982 5982 5982 5982 5982 5982 5983 5983 5983 5983 5983 5982 5982 5982 5982 5981 5981 5981 5980 5979 5978 5978 5977 5975 5974 5973 5971 5969 5967 5965 5963 5961 5958 5956 5954 5952 5949 5947 5945 5942
5964 5964 5965 5965 5966 5967 5967 5967 5968 5969 5970 5971 5971 5972 5973 5973 5974 5974 5974 5974 5974 5974 5974 5975 5975 5975 5975 5976 5976 5976 5976 5976 5977 5977 5977 5977 5978 5978 5979 5979 5980 5980 5980 5981 5981 5982 5982 5982 5982 5982 5983 5983 5983 5983 5983 5983 5983 5982 5982 5982 5982 5981 5981 5980 5979 5978 5978 5976 5975 5974 5972 5971 5969 5967 5964 5962 5959 5957 5955 5953 5950 5948 5946 5943 5940
5963 5964 5965 5965 5966 5966 5967 5967 5968 5969 5970 5971 5972 5972 5973 5974 5974 5974 5975 5975 5975 5975 5975 5975 5975 5976 5976 5976 5976 5976 5976 5977 5977 5977 5977 5977 5978 5979 5979 5980 5980 5980 5981 5981 5982 5982 5982 5982 5982 5983 5983 5983 5983 5983 5983 5983 5983 5983 5982 5982 5982 5982 5981 5980 5979 5978 5977 5975 5974 5973 5971 5970 5968 5965 5963 5960 5958 5956 5954 5952 5949 5947 5944 5941 5939
5963 5963 5964 5965 5966 5966 5967 5967 5968 5968 5969 5971 5972 5973 5973 5974 5975 5975 5975 5975 5976 5976 5976 5976 5976 5976 5976 5976 5976 5976 5976 5977 5977 5977 5977 5978 5978 5979 5979 5980 5980 5981 5981 5981 5982 5982 5982 5982 5982 5983 5983 5983 5983 5983 5983 5983 5983 5983 5982 5982 5982 5981 5980 5980 5978 5977 5976 5974 5973 5972 5971 5969 5967 5964 5962 5960 5958 5955 5953 5950 5948 5945 5942 5940 5938
5962 5963 5964 5964 5965 5966 5966 5967 5967 5968 5969 5970 5972 5973 5974 5974 5975 5975 5976 5976 5976 5977 5977 5977 5977 5977 5977 5977 5977 5976 5976 5977 5977 5977 5978 5978 5978 5979 5979 5980 5980 5981 5981 5981 5982 5982 5982 5982 5982 5982 5983 5983 5983 5983 5983 5983 5983 5982 5982 5982 5981 5981 5980 5979 5978 5977 5976 5975 5974 5972 5970 5968 5966 5964 5962 5960 5957 5954 5951 5949 5947 5944 5942 5939 5936
5961 5962 5963 5964 5965 5965 5966 5967 5967 5968 5969 5970 5971 5972 5973 5974 5975 5976 5976 5976 5977 5977 5977 5977 5977 5977 5977 5977 5977 5977 5977 5977 5977 5977 5978 5978 5978 5979 5979 5980 5980 5980 5981 5981 5982 5982 5982 5982 5982 5982 5982 5983 5983 5983 5983 5983 5982 5982 5981 5981 5981 5980 5980 5979 5978 5977 5976 5975 5973 5972 5970 5968 5966 5964 5962 5959 5956 5954 5951 5949 5947 5944 5941 5938 5935
5960 5961 5962 5963 5964 5965 5966 5966 5967 5968 5969 5970 5971 5972 5973 5974 5975 5975 5976 5976 5977 5977 5977 5977 5977 5977 5977 5977 5977 5977 5977 5977 5977 5977 5978 5978 5978 5978 5979 5979 5980 5980 5980 5981 5981 5981 5982 5982 5982 5982 5982 5982 5982 5982 5982 5982 5982 5981 5981 5980 5980 5980 5979 5978 5977 5976 5975 5974 5972 5971 5969 5968 5966 5963 5961 5959 5956 5954 5951 5949 5946 5943 5940 5937 5934
5958 5959 5960 5962 5963 5964 5965 5966 5967 5968 5969 5970 5971 5972 5973 5974 5975 5975 5976 5976 5976 5977 5977 5977 5977 5977 5977 5977 5977 5977 5977 5977 5977 5977 5977 5978 5978 5978 5978 5979 5979 5979 5980 5980 5981 5981 5981 5981 5982 5982 5982 5982 5982 5982 5981 5981 5981 5980 5980 5980 5980 5979 5978 5977 5976 5976 5974 5973 5971 5970 5969 5967 5965 5962 5960 5958 5956 5953 5951 5948 5945 5942 5939 5936 5933
5957 5958 5959 5960 5961 5962 5964 5965 5966 5967 5968 5969 5970 5971 5972 5973 5974 5975 5975 5975 5976 5976 5976 5976 5976 5976 5976 5976 5976 5976 5976 5977 5977 5977 5977 5977 5977 5977 5978 5978 5978 5979 5979 5979 5980 5980 5981 5981 5981 5981 5981 5981 5981 5981 5981 5980 5980 5979 5979 5979 5979 5978 5978 5977 5976 5974 5973 5972 5971 5969 5968 5966 5964 5962 5960 5958 5955 5953 5950 5947 5944 5941 5938 5935 5932
5955 5956 5957 5959 5960 5961 5962 5963 5965 5966 5967 5969 5970 5970 5971 5972 5973 5974 5974 5975 5975 5976 5976 5976 5976 5976 5975 5975 5975 5976 5976 5976 5976 5976 5977 5977 5977 5977 5977 5977 5977 5978 5978 5979 5979 5979 5979 5980 5980 5980 5980 5980 5980 5980 5980 5979 5979 5979 5979 5978 5978 5977 5976 5975 5975 5974 5973 5972 5970 5968 5967 5965 5963 5961 5959 5957 5954 5952 5949 5946 5943 5940 5938 5936 5933
5953 5954 5955 5956 5958 5959 5960 5962 5963 5964 5966 5967 5968 5969 5970 5971 5972 5973 5973 5974 5974 5974 5975 5975 5975 5975 5975 5975 5975 5975 5975 5975 5975 5976 5976 5976 5976 5976 5976 5976 5976 5977 5977 5977 5978 5978 5978 5979 5979 5979 5979 5978 5979 5979 5979 5978 5978 5978 5977 5977 5976 5976 5975 5974 5973 5973 5972 5971 5970 5967 5965 5964 5962 5960 5958 5956 5953 5951 5948 5945 5943 5940 5938 5936 5934
5951 5952 5953 5954 5955 5957 5958 5960 5961 5962 5964 5965 5967 5968 5969 5970 5971 5972 5972 5973 5973 5973 5974 5974 5974 5974 5974 5974 5974 5974 5974 5974 5974 5974 5975 5975 5975 5975 5975 5975 5976 5976 5976 5976 5977 5977 5977 5977 5977 5977 5977 5977 5977 5977 5977 5977 5977 5976 5976 5975 5975 5974 5973 5972 5971 5971 5971 5971 5969 5967 5965 5963 5962 5959 5957 5955 5952 5950 5947 5945 5943 5941 5938 5936 5933
5948 5950 5951 5952 5953 5955 5956 5957 5959 5960 5962 5963 5965 5966 5967 5968 5969 5970 5971 5971 5971 5972 5972 5973 5973 5973 5973 5973 5972 5973 5973 5973 5973 5973 5973 5974 5974 5974 5974 5974 5975 5975 5975 5975 5975 5976 5976 5976 5976 5976 5976 5975 5976 5976 5976 5975 5975 5975 5974 5974 5973 5973 5972 5971 5969 5969 5969 5969 5968 5966 5964 5963 5961 5958 5956 5953 5951 5949 5947 5945 5942 5940 5937 5935 5932
5945 5947 5949 5950 5951 5952 5953 5955 5956 5958 5959 5960 5962 5963 5965 5966 5967 5968 5969 5969 5970 5970 5970 5971 5971 5971 5971 5971 5971 5971 5971 5971 5971 5972 5972 5973 5973 5973 5973 5973 5973 5974 5974 5973 5974 5974 5974 5974 5974 5974 5974 5974 5974 5974 5974 5974 5974 5973 5972 5972 5971 5971 5970 5970 5968 5967 5967 5967 5967 5965 5963 5961 5960 5957 5954 5952 5950 5948 5946 5944 5941 5939 5936 5933 5930
5941 5943 5946 5947 5948 5949 5951 5952 5954 5955 5957 5957 5959 5960 5962 5963 5965 5966 5967 5967 5968 5968 5968 5969 5969 5969 5969 5969 5970 5970 5970 5969 5970 5970 5970 5971 5971 5971 5971 5972 5972 5972 5972 5972 5972 5972 5972 5972 5972 5972 5972 5972 5972 5972 5972 5972 5972 5971 5971 5970 5970 5969 5968 5968 5967 5965 5965 5965 5965 5963 5961 5960 5958 5956 5953 5951 5948 5946 5944 5942 5939 5937 5934 5931 5928
5937 5940 5942 5944 5945 5946 5948 5950 5951 5952 5954 5954 5955 5957 5959 5960 5962 5964 5965 5965 5966 5966 5967 5967 5967 5967 5967 5967 5968 5968 5968 5968 5968 5968 5969 5969 5969 5969 5969 5969 5970 5970 5970 5970 5970 5970 5970 5970 5970 5970 5970 5971 5970 5969 5969 5970 5970 5969 5969 5969 5968 5968 5967 5966 5964 5963 5962 5962 5962 5961 5959 5958 5956 5954 5951 5949 5946 5944 5942 5940 5937 5935 5932 5929 5926
5934 5936 5938 5940 5942 5943 5945 5946 5947 5949 5950 5952 5953 5954 5955 5957 5959 5961 5962 5963 5964 5964 5964 5965 5965 5965 5965 5965 5965 5966 5966 5966 5967 5967 5967 5967 5967 5967 5967 5967 5967 5967 5968 5968 5968 5968 5968 5968 5968 5968 5968 5968 5969 5968 5967 5967 5967 5967 5967 5966 5966 5966 5965 5964 5962 5960 5960 5959 5959 5959 5957 5955 5954 5952 5950 5947 5944 5942 5940 5937 5935 5932 5930 5927 5924
5930 5932 5934 5936 5938 5940 5941 5942 5944 5945 5947 5948 5949 5950 5952 5954 5955 5957 5959 5960 5961 5961 5962 5962 5962 5963 5963 5963 5963 5963 5964 5964 5964 5965 5965 5965 5965 5965 5965 5965 5965 5965 5965 5965 5966 5966 5966 5966 5966 5966 5966 5966 5966 5966 5965 5964 5964 5964 5964 5964 5963 5963 5963 5962 5960 5958 5957 5956 5956 5955 5954 5952 5951 5950 5948 5945 5942 5939 5937 5935 5932 5930 5927 5925 5922
5928 5928 5930 5932 5934 5936 5938 5939 5940 5942 5943 5945 5946 5947 5948 5950 5952 5954 5956 5957 5958 5959 5959 5959 5960 5960 5960 5961 5961 5961 5962 5962 5962 5963 5963 5963 5963 5963 5963 5963 5963 5963 5963 5963 5964 5964 5964 5964 5964 5963 5963 5963 5963 5963 5962 5962 5961 5961 5960 5960 5960 5960 5961 5960 5958 5955 5954 5954 5953 5952 5951 5949 5947 5946 5945 5942 5939 5936 5934 5932 5930 5927 5925 5922 5919
5925 5926 5927 5929 5930 5932 5934 5936 5937 5938 5939 5941 5942 5944 5945 5946 5948 5950 5952 5954 5955 5956 5956 5956 5957 5957 5958 5958 5958 5959 5959 5960 5960 5961 5961 5961 5961 5961 5961 5961 5961 5960 5960 5960 5961 5961 5961 5961 5961 5960 5960 5960 5960 5960 5959 5958 5958 5957 5957 5957 5956 5957 5957 5957 5955 5953 5951 5951 5950 5949 5947 5946 5944 5943 5941 5939 5936 5933 5931 5928 5926 5924 5922 5920 5917
5922 5923 5924 5925 5927 5928 5930 5932 5934 5935 5936 5937 5938 5940 5941 5943 5945 5947 5949 5951 5952 5953 5953 5953 5953 5954 5954 5955 5955 5956 5956 5957 5957 5958 5958 5959 5958 5958 5958 5958 5958 5958 5957 5958 5958 5958 5958 5958 5958 5958 5957 5956 5956 5956 5955 5955 5954 5954 5954 5953 5952 5953 5954 5953 5951 5950 5949 5948 5947 5946 5945 5943 5942 5940 5939 5937 5934 5931 5928 5926 5924 5921 5919 5917 5915
5920 5920 5921 5922 5924 5925 5927 5928 5930 5931 5932 5933 5935 5936 5938 5939 5941 5944 5946 5947 5949 5949 5949 5949 5950 5951 5951 5952 5952 5953 5953 5954 5954 5955 5956 5956 5956 5956 5956 5956 5955 5955 5955 5955 5955 5955 5955 5955 5955 5954 5954 5953 5952 5952 5951 5950 5950 5950 5949 5949 5949 5950 5950 5949 5948 5947 5946 5945 5943 5943 5942 5941 5939 5937 5936 5935 5933 5930 5926 5923 5922 5920 5917 5915 5912